PBD168 URMM-UUWW

Flight info

Callsign PBD168
Flight time N/A
Altitude 37000
Route URILU5L URILU R227 BEMES DCT VULFI DCT TUVGI/K0843F360 DCT EVZUN DCT ZIZAR DCT VAZLU DCT UZZID DCT NOKLI/K0856F370 N72 WGD G481 OBABI/K0856F360 DCT VUVNE DCT GEKPA L736 OLOPI OLOPI3A
Aircraft B738/M-SDE2E3FGHIRWXY/LB1

Departure

Time 2026-04-12 10:02
Airport Mineralnye Vody Airport (URMM)

Arrival

Time N/A
Airport Vnukovo International Airport (UUWW)
Time Latitude Longitude Altitude Speed Heading
2026-04-12 09:30 44.21667 43.09197 1053 ft 0 kts 212°
2026-04-12 09:37 44.21666 43.09197 1052 ft 0 kts 212°
2026-04-12 09:50 44.21675 43.09204 1052 ft 1 kts 212°
2026-04-12 09:51 44.21687 43.09216 1052 ft 2 kts 213°
2026-04-12 09:51 44.21700 43.09227 1052 ft 2 kts 224°
2026-04-12 09:51 44.21708 43.09244 1052 ft 2 kts 245°
2026-04-12 09:51 44.21713 43.09264 1052 ft 2 kts 265°
2026-04-12 09:52 44.21711 43.09285 1052 ft 2 kts 285°
2026-04-12 09:52 44.21705 43.09304 1052 ft 2 kts 306°
2026-04-12 09:52 44.21699 43.09314 1052 ft 1 kts 317°
2026-04-12 09:52 44.21695 43.09318 1052 ft 0 kts 318°
2026-04-12 09:55 44.21701 43.09312 1052 ft 4 kts 318°
2026-04-12 09:55 44.21729 43.09266 1052 ft 6 kts 308°
2026-04-12 09:55 44.21750 43.09219 1052 ft 6 kts 301°
2026-04-12 09:55 44.21786 43.09139 1052 ft 10 kts 302°
2026-04-12 09:56 44.21827 43.09065 1052 ft 8 kts 328°
2026-04-12 09:56 44.21876 43.09078 1052 ft 7 kts 33°
2026-04-12 09:56 44.21920 43.09117 1052 ft 9 kts 33°
2026-04-12 09:56 44.21985 43.09117 1052 ft 9 kts 333°
2026-04-12 09:57 44.22042 43.09076 1052 ft 10 kts 333°
2026-04-12 09:57 44.22104 43.09032 1052 ft 9 kts 333°
2026-04-12 09:57 44.22160 43.08992 1053 ft 8 kts 333°
2026-04-12 09:57 44.22213 43.08955 1052 ft 10 kts 333°
2026-04-12 09:58 44.22296 43.08896 1052 ft 14 kts 333°
2026-04-12 09:58 44.22382 43.08835 1053 ft 13 kts 333°
2026-04-12 09:58 44.22465 43.08733 1053 ft 21 kts 310°
2026-04-12 09:58 44.22583 43.08513 1053 ft 34 kts 302°
2026-04-12 09:59 44.22722 43.08209 1053 ft 39 kts 302°
2026-04-12 09:59 44.22779 43.08086 1053 ft 40 kts 304°
2026-04-12 09:59 44.22918 43.07768 1053 ft 41 kts 302°
2026-04-12 09:59 44.23070 43.07439 1053 ft 39 kts 302°
2026-04-12 10:00 44.23217 43.07120 1053 ft 38 kts 304°
2026-04-12 10:00 44.23356 43.06821 1053 ft 36 kts 301°
2026-04-12 10:00 44.23486 43.06530 1053 ft 34 kts 301°
2026-04-12 10:00 44.23584 43.06273 1053 ft 13 kts 265°
2026-04-12 10:01 44.23591 43.06244 1053 ft 2 kts 30°
2026-04-12 10:01 44.23589 43.06284 1053 ft 6 kts 111°
2026-04-12 10:01 44.23564 43.06345 1053 ft 12 kts 124°
2026-04-12 10:01 44.23447 43.06608 1053 ft 63 kts 118°
2026-04-12 10:02 44.23100 43.07379 1053 ft 124 kts 122°
2026-04-12 10:02 44.22570 43.08581 1247 ft 155 kts 120°
2026-04-12 10:02 44.22288 43.09220 1514 ft 159 kts 120°
2026-04-12 10:02 44.21692 43.10595 2010 ft 173 kts 119°
2026-04-12 10:03 44.21050 43.12096 2531 ft 185 kts 119°
2026-04-12 10:03 44.20358 43.13650 2956 ft 200 kts 121°
2026-04-12 10:03 44.19566 43.15364 3366 ft 215 kts 121°
2026-04-12 10:03 44.18733 43.17162 3803 ft 229 kts 121°
2026-04-12 10:04 44.17849 43.19088 4237 ft 243 kts 121°
2026-04-12 10:04 44.17133 43.21243 4831 ft 246 kts 99°
2026-04-12 10:04 44.17098 43.23588 5512 ft 244 kts 83°
2026-04-12 10:04 44.17245 43.25929 6154 ft 247 kts 84°
2026-04-12 10:05 44.17316 43.28299 6812 ft 249 kts 87°
2026-04-12 10:05 44.17312 43.30726 7427 ft 253 kts 89°
2026-04-12 10:05 44.17280 43.33181 8021 ft 257 kts 90°
2026-04-12 10:05 44.17246 43.35669 8655 ft 259 kts 90°
2026-04-12 10:06 44.17216 43.38177 9279 ft 261 kts 90°
2026-04-12 10:06 44.17188 43.40687 9880 ft 262 kts 90°
2026-04-12 10:06 44.17162 43.43228 10483 ft 262 kts 92°
2026-04-12 10:06 44.17119 43.45775 11073 ft 263 kts 92°
2026-04-12 10:07 44.17082 43.48338 11569 ft 267 kts 92°
2026-04-12 10:07 44.17051 43.50933 11993 ft 274 kts 91°
2026-04-12 10:07 44.17034 43.53626 12449 ft 284 kts 92°
2026-04-12 10:07 44.17034 43.56428 12781 ft 297 kts 93°
2026-04-12 10:08 44.17010 43.59395 13028 ft 312 kts 92°
2026-04-12 10:08 44.16960 43.62475 13162 ft 330 kts 94°
2026-04-12 10:08 44.16888 43.65806 13162 ft 352 kts 94°
2026-04-12 10:08 44.16830 43.68942 13155 ft 369 kts 94°
2026-04-12 10:09 44.16684 43.72531 13195 ft 378 kts 98°
2026-04-12 10:09 44.16363 43.76152 13894 ft 378 kts 101°
2026-04-12 10:09 44.15952 43.79738 14594 ft 381 kts 103°
2026-04-12 10:10 44.13763 43.97793 17891 ft 395 kts 104°
2026-04-12 10:11 44.13325 44.01531 18448 ft 399 kts 104°
2026-04-12 10:11 44.12878 44.05377 19078 ft 402 kts 104°
2026-04-12 10:11 44.12430 44.09235 19678 ft 406 kts 105°
2026-04-12 10:11 44.11981 44.13074 20155 ft 412 kts 105°
2026-04-12 10:12 44.11511 44.17051 20696 ft 416 kts 105°
2026-04-12 10:12 44.11049 44.20975 21254 ft 419 kts 105°
2026-04-12 10:12 44.10574 44.25016 21783 ft 423 kts 105°
2026-04-12 10:12 44.10099 44.29060 22281 ft 426 kts 105°
2026-04-12 10:13 44.09622 44.33111 22754 ft 431 kts 105°
2026-04-12 10:13 44.09137 44.37227 23279 ft 434 kts 105°
2026-04-12 10:13 44.08648 44.41366 23789 ft 437 kts 105°
2026-04-12 10:13 44.08152 44.45538 24187 ft 442 kts 105°
2026-04-12 10:14 44.07648 44.49758 24710 ft 444 kts 105°
2026-04-12 10:14 44.07147 44.53963 25312 ft 444 kts 105°
2026-04-12 10:14 44.06642 44.58169 25748 ft 447 kts 105°
2026-04-12 10:14 44.06147 44.62468 26193 ft 451 kts 105°
2026-04-12 10:15 44.05687 44.66778 26743 ft 451 kts 105°
2026-04-12 10:15 44.05243 44.71124 27091 ft 456 kts 105°
2026-04-12 10:15 44.04803 44.75463 27554 ft 458 kts 105°
2026-04-12 10:15 44.04363 44.79821 28055 ft 458 kts 105°
2026-04-12 10:16 44.03917 44.84198 28455 ft 460 kts 105°
2026-04-12 10:16 44.03462 44.88617 28819 ft 463 kts 105°
2026-04-12 10:16 44.03004 44.93032 29339 ft 462 kts 106°
2026-04-12 10:16 44.02546 44.97436 29991 ft 458 kts 106°
2026-04-12 10:17 44.02090 45.01796 30531 ft 456 kts 107°
2026-04-12 10:17 44.01632 45.06145 31174 ft 451 kts 107°
2026-04-12 10:17 44.01177 45.10429 31534 ft 451 kts 107°
2026-04-12 10:17 44.00714 45.14736 31888 ft 451 kts 107°
2026-04-12 10:18 44.00251 45.19022 32234 ft 451 kts 107°
2026-04-12 10:18 43.99784 45.23312 32569 ft 452 kts 106°
2026-04-12 10:18 43.99308 45.27629 32913 ft 452 kts 107°
2026-04-12 10:18 43.98831 45.31908 33230 ft 452 kts 107°
2026-04-12 10:19 43.98347 45.36205 33470 ft 454 kts 106°
2026-04-12 10:19 43.98018 45.39129 33714 ft 454 kts 107°